Flag for U.S.A. Weather past 2 weeks in Orlando, Florida, U.S.A.

Now
55 °F

Sunny.


Feels Like: 53 °F
Forecast: 50 / 69 °F
Wind: 7 mph from Northwest

Location: Orlando Executive Airport

Current Time: Mar 29, 2015 at 10:03:31 AM

Latest Report: Mar 29, 2015 at 8:53 AM


Visibility: 10 mi

Pressure: 30.34 "Hg

Humidity: 49%

Dew point: 36 °F

Location of OrlandoLocation

Historic Weather in Orlando — Graph

°F

Orlando temperature yesterday

Maximum temperature yesterday: 69 °F (at 4:53 PM)
Minimum temperature yesterday: 53 °F (at 7:53 AM)
Average temperature yesterday: 60 °F

Past Weeks' High & Low Weather Summary

 TemperatureHumidityPressure
High89 °F (Mar 21, 3:53 PM)100% (Mar 25, 7:53 AM)30.34 "Hg (Mar 25, 7:53 AM)
Low51 °F (Mar 29, 7:53 AM)25% (Mar 28, 3:53 PM)29.80 "Hg (Mar 27, 2:53 PM)
Average73 °F71%30.05 "Hg
* Reported Mar 14 8:53 AM — Mar 29 8:53 AM, Orlando, Weather by CustomWeather, © 2015

Note: Actual official high and low records may vary slightly from our data, if they occured in-between our weather recording intervals... More about our weather records

Advertising

Orlando weather history for previous 24 hours

 ConditionsComfort  
Time TempWeatherWind HumidityBarometerVisibility
8:53 AM
Sun, Mar 29
55 °FSunny.7 mph49%30.34 "Hg10 mi
7:53 AM51 °FClear.5 mph69%30.33 "Hg10 mi
6:53 AM52 °FClear.3 mph66%30.30 "Hg10 mi
5:53 AM53 °FClear.3 mph61%30.27 "Hg10 mi
4:53 AM53 °FClear.6 mph59%30.25 "Hg10 mi
3:53 AM54 °FClear.3 mph59%30.24 "Hg10 mi
2:53 AM55 °FClear.5 mph59%30.26 "Hg10 mi
1:53 AM56 °FClear.6 mph62%30.26 "Hg10 mi
12:53 AM56 °FClear.6 mph62%30.25 "Hg10 mi
11:53 PM
Sat, Mar 28
57 °FClear.7 mph60%30.24 "Hg10 mi
10:53 PM58 °FClear.8 mph56%30.24 "Hg10 mi
9:53 PM59 °FClear.10 mph49%30.22 "Hg10 mi
8:53 PM61 °FClear.10 mph39%30.19 "Hg10 mi
7:53 PM63 °FSunny.13 mph34%30.17 "Hg10 mi
6:53 PM66 °FSunny.13 mph32%30.14 "Hg10 mi
5:53 PM68 °FSunny.9 mph31%30.11 "Hg10 mi
4:53 PM69 °FSunny.13 mph26%30.11 "Hg10 mi
3:53 PM68 °FSunny.13 mph25%30.12 "Hg10 mi
2:53 PM65 °FSunny.16 mph32%30.14 "Hg10 mi
1:53 PM64 °FSunny.20 mph32%30.16 "Hg10 mi
12:53 PM62 °FSunny.8 mph34%30.17 "Hg10 mi
11:53 AM60 °FSunny.8 mph33%30.18 "Hg10 mi
10:53 AM59 °FSunny.10 mph36%30.18 "Hg10 mi
Weather by CustomWeather, © 2015

See weather overviewHow to use our weather pages